Radiation Dose at Monitoring Post of Fukushima Daini Nuclear Power Station
Date,Time,MP-1(microSv/h),MP-2(microSv/h),MP-3(microSv/h),MP-4(microSv/h),MP-5(microSv/h),MP-6(microSv/h),MP-7(microSv/h),Wind Direction,Wind Velocity(m/s),Rain
2019/02/14,00:00,0.215,0.194,0.316,0.294,0.276,0.158,0.095,northwest,8.9,No
2019/02/14,00:10,0.214,0.194,0.316,0.294,0.276,0.157,0.094,west-northwest,9.8,No
2019/02/14,00:20,0.215,0.193,0.315,0.295,0.276,0.158,0.096,west-northwest,10.1,No
2019/02/14,00:30,0.214,0.193,0.317,0.294,0.277,0.157,0.095,west-northwest,10.6,No
2019/02/14,00:40,0.216,0.194,0.315,0.295,0.276,0.158,0.094,west-northwest,9.7,No
2019/02/14,00:50,0.214,0.194,0.315,0.294,0.276,0.157,0.095,west-northwest,9.5,No
2019/02/14,01:00,0.214,0.194,0.316,0.294,0.276,0.158,0.094,west-northwest,10.3,No
2019/02/14,01:10,0.214,0.194,0.316,0.294,0.276,0.157,0.095,west-northwest,10.9,No
2019/02/14,01:20,0.215,0.194,0.315,0.293,0.277,0.158,0.095,west-northwest,10.7,No
2019/02/14,01:30,0.215,0.194,0.316,0.295,0.277,0.157,0.095,west-northwest,9.0,No
2019/02/14,01:40,0.214,0.193,0.314,0.295,0.277,0.158,0.095,west-northwest,11.5,No
2019/02/14,01:50,0.215,0.194,0.316,0.294,0.276,0.157,0.095,west-northwest,12.8,No
2019/02/14,02:00,0.214,0.194,0.316,0.294,0.276,0.158,0.095,west-northwest,13.6,No
2019/02/14,02:10,0.215,0.194,0.316,0.295,0.276,0.157,0.095,west-northwest,15.9,No
2019/02/14,02:20,0.215,0.193,0.317,0.294,0.279,0.158,0.095,west-northwest,14.5,No
2019/02/14,02:30,0.215,0.194,0.318,0.294,0.276,0.157,0.095,west-northwest,13.3,No
2019/02/14,02:40,0.214,0.194,0.316,0.295,0.277,0.158,0.095,west-northwest,12.0,No
2019/02/14,02:50,0.215,0.194,0.317,0.294,0.278,0.158,0.095,west-northwest,10.1,No
2019/02/14,03:00,0.215,0.195,0.316,0.295,0.279,0.158,0.095,west-northwest,10.3,No
2019/02/14,03:10,0.215,0.194,0.316,0.293,0.277,0.158,0.095,west-northwest,8.6,No
2019/02/14,03:20,0.215,0.194,0.316,0.294,0.277,0.159,0.095,west-northwest,8.1,No
2019/02/14,03:30,0.215,0.195,0.316,0.295,0.277,0.158,0.095,northwest,7.9,No
2019/02/14,03:40,0.215,0.195,0.317,0.294,0.278,0.157,0.095,west-northwest,6.1,No
2019/02/14,03:50,0.215,0.195,0.316,0.295,0.278,0.157,0.095,west,4.1,No
2019/02/14,04:00,0.215,0.194,0.316,0.295,0.278,0.157,0.095,west,3.2,No
2019/02/14,04:10,0.214,0.195,0.317,0.294,0.276,0.157,0.095,west-northwest,7.1,No
2019/02/14,04:20,0.215,0.194,0.316,0.295,0.276,0.157,0.096,west-northwest,10.7,No
2019/02/14,04:30,0.215,0.195,0.317,0.294,0.276,0.158,0.095,west,9.8,No
2019/02/14,04:40,0.215,0.193,0.318,0.293,0.276,0.157,0.094,west,9.8,No
2019/02/14,04:50,0.215,0.194,0.317,0.294,0.277,0.158,0.095,west,7.3,No
2019/02/14,05:00,0.214,0.194,0.317,0.295,0.276,0.157,0.095,west,6.8,No
2019/02/14,05:10,0.216,0.195,0.316,0.295,0.275,0.158,0.094,west-northwest,2.8,No
2019/02/14,05:20,0.215,0.194,0.317,0.296,0.277,0.158,0.095,north-northwest,1.9,No
2019/02/14,05:30,0.215,0.194,0.316,0.294,0.276,0.158,0.095,north,1.5,No
2019/02/14,05:40,0.214,0.195,0.315,0.294,0.278,0.157,0.095,north,2.5,No
2019/02/14,05:50,0.215,0.195,0.315,0.293,0.276,0.157,0.094,north-northwest,2.6,No
2019/02/14,06:00,0.214,0.193,0.317,0.294,0.277,0.158,0.095,west-northwest,2.7,No
2019/02/14,06:10,0.214,0.194,0.316,0.294,0.276,0.157,0.095,northwest,2.3,No
2019/02/14,06:20,0.215,0.194,0.316,0.294,0.275,0.157,0.095,north-northwest,2.9,No
2019/02/14,06:30,0.214,0.194,0.316,0.295,0.276,0.157,0.095,northwest,3.8,No
2019/02/14,06:40,0.214,0.194,0.316,0.291,0.276,0.157,0.095,north-northwest,3.3,No
2019/02/14,06:50,0.214,0.193,0.316,0.294,0.276,0.158,0.095,north-northwest,2.8,No
2019/02/14,07:00,0.215,0.194,0.315,0.294,0.276,0.157,0.096,north,3.7,No
2019/02/14,07:10,0.215,0.193,0.316,0.293,0.275,0.158,0.095,north-northwest,4.2,No
2019/02/14,07:20,0.215,0.194,0.317,0.293,0.276,0.158,0.094,north-northwest,4.3,No
2019/02/14,07:30,0.215,0.193,0.317,0.294,0.276,0.157,0.095,north-northwest,4.2,No
2019/02/14,07:40,0.214,0.194,0.316,0.294,0.275,0.157,0.095,north-northwest,3.8,No
2019/02/14,07:50,0.214,0.194,0.314,0.293,0.276,0.157,0.095,north-northwest,4.0,No
2019/02/14,08:00,0.214,0.194,0.317,0.293,0.276,0.157,0.094,north-northwest,4.4,No
2019/02/14,08:10,0.214,0.195,0.316,0.294,0.275,0.157,0.094,north-northwest,3.4,No
2019/02/14,08:20,0.214,0.194,0.316,0.293,0.275,0.157,0.095,north-northwest,4.0,No
2019/02/14,08:30,0.214,0.194,0.315,0.293,0.275,0.158,0.095,northwest,5.8,No
2019/02/14,08:40,0.215,0.193,0.315,0.293,0.277,0.158,0.095,northwest,7.0,No
2019/02/14,08:50,0.214,0.194,0.315,0.293,0.277,0.157,0.094,northwest,6.8,No
2019/02/14,09:00,0.214,0.193,0.316,0.293,0.274,0.158,0.094,west-northwest,5.9,No
2019/02/14,09:10,0.214,0.193,0.317,0.293,0.275,0.156,0.095,northwest,4.2,No
2019/02/14,09:20,0.214,0.193,0.315,0.293,0.276,0.156,0.094,northwest,5.5,No
2019/02/14,09:30,0.216,0.193,0.315,0.293,0.276,0.157,0.094,northwest,4.8,No
2019/02/14,09:40,0.213,0.193,0.315,0.292,0.276,0.157,0.094,northwest,4.7,No
2019/02/14,09:50,0.213,0.192,0.315,0.293,0.275,0.158,0.094,north,3.1,No
2019/02/14,10:00,0.213,0.193,0.314,0.294,0.276,0.156,0.093,north,2.5,No
2019/02/14,10:10,0.212,0.194,0.314,0.293,0.276,0.157,0.094,north-northeast,1.9,No
2019/02/14,10:20,0.212,0.194,0.316,0.292,0.274,0.157,0.095,northwest,3.9,No
2019/02/14,10:30,0.214,0.193,0.315,0.293,0.276,0.156,0.094,west-northwest,4.0,No
2019/02/14,10:40,0.212,0.193,0.315,0.292,0.275,0.156,0.094,west-northwest,4.1,No
2019/02/14,10:50,0.212,0.193,0.315,0.293,0.275,0.157,0.094,west,3.7,No
2019/02/14,11:00,0.213,0.192,0.315,0.291,0.277,0.157,0.094,north-northwest,4.0,No
2019/02/14,11:10,0.211,0.194,0.315,0.294,0.275,0.156,0.094,northwest,4.2,No
2019/02/14,11:20,0.213,0.194,0.316,0.293,0.277,0.157,0.094,north-northwest,5.7,No
2019/02/14,11:30,0.213,0.193,0.314,0.293,0.278,0.157,0.094,northwest,4.8,No
2019/02/14,11:40,0.211,0.194,0.315,0.295,0.277,0.157,0.093,northwest,4.4,No
2019/02/14,11:50,0.214,0.193,0.315,0.293,0.276,0.157,0.094,west-northwest,5.3,No
2019/02/14,12:00,0.213,0.193,0.315,0.292,0.278,0.157,0.093,northwest,5.6,No
2019/02/14,12:10,0.214,0.193,0.316,0.293,0.276,0.156,0.093,west-northwest,2.9,No
2019/02/14,12:20,0.213,0.193,0.314,0.294,0.276,0.156,0.094,west-northwest,5.9,No
2019/02/14,12:30,0.213,0.193,0.315,0.294,0.279,0.156,0.094,west,4.0,No
2019/02/14,12:40,0.213,0.193,0.315,0.295,0.277,0.158,0.094,west-northwest,2.8,No
2019/02/14,12:50,0.214,0.194,0.317,0.294,0.277,0.156,0.095,northwest,4.9,No
2019/02/14,13:00,0.214,0.194,0.315,0.294,0.278,0.158,0.095,north-northwest,3.1,No
2019/02/14,13:10,0.214,0.195,0.316,0.295,0.277,0.158,0.094,north-northwest,3.2,No
2019/02/14,13:20,0.214,0.194,0.316,0.293,0.275,0.158,0.095,northwest,2.5,No
2019/02/14,13:30,0.214,0.194,0.314,0.294,0.276,0.157,0.095,north-northwest,5.6,No
2019/02/14,13:40,0.214,0.193,0.317,0.294,0.275,0.157,0.095,northwest,5.3,No
2019/02/14,13:50,0.213,0.194,0.316,0.294,0.275,0.157,0.095,northwest,4.0,No
2019/02/14,14:00,0.214,0.194,0.316,0.294,0.277,0.157,0.093,northwest,4.3,No
2019/02/14,14:10,0.214,0.193,0.317,0.294,0.277,0.157,0.095,west-northwest,5.0,No
2019/02/14,14:20,0.213,0.194,0.316,0.294,0.276,0.157,0.095,west-northwest,6.1,No
2019/02/14,14:30,0.214,0.194,0.315,0.294,0.276,0.158,0.095,northwest,5.8,No
2019/02/14,14:40,0.213,0.193,0.315,0.293,0.276,0.158,0.094,northwest,5.7,No
2019/02/14,14:50,0.215,0.194,0.316,0.295,0.277,0.157,0.094,northwest,7.0,No
2019/02/14,15:00,0.213,0.194,0.317,0.294,0.276,0.157,0.095,west-northwest,6.2,No
2019/02/14,15:10,0.214,0.195,0.316,0.293,0.277,0.158,0.095,west-northwest,6.3,No
2019/02/14,15:20,0.212,0.194,0.315,0.294,0.274,0.157,0.095,west-northwest,5.5,No
2019/02/14,15:30,0.213,0.194,0.316,0.293,0.277,0.157,0.095,northwest,5.5,No
2019/02/14,15:40,0.214,0.195,0.316,0.295,0.276,0.157,0.094,northwest,5.6,No
2019/02/14,15:50,0.214,0.195,0.316,0.293,0.277,0.158,0.094,west-northwest,6.8,No
2019/02/14,16:00,0.213,0.193,0.316,0.295,0.277,0.157,0.095,northwest,6.1,No
2019/02/14,16:10,0.214,0.195,0.316,0.293,0.276,0.158,0.095,northwest,6.0,No
2019/02/14,16:20,0.215,0.195,0.317,0.293,0.276,0.158,0.095,northwest,5.3,No
2019/02/14,16:30,0.214,0.194,0.317,0.294,0.276,0.157,0.094,northwest,3.4,No
2019/02/14,16:40,0.214,0.195,0.315,0.293,0.277,0.158,0.094,northwest,4.6,No
2019/02/14,16:50,0.214,0.196,0.316,0.295,0.277,0.157,0.094,northwest,3.7,No
2019/02/14,17:00,0.216,0.193,0.317,0.294,0.277,0.157,0.095,northwest,4.1,No
2019/02/14,17:10,0.215,0.194,0.316,0.294,0.277,0.157,0.094,west-northwest,4.5,No
2019/02/14,17:20,0.215,0.195,0.316,0.293,0.277,0.158,0.094,west-northwest,4.4,No
2019/02/14,17:30,0.214,0.195,0.315,0.293,0.277,0.158,0.094,west-northwest,6.5,No
2019/02/14,17:40,0.214,0.194,0.316,0.294,0.276,0.157,0.095,west-northwest,5.9,No
2019/02/14,17:50,0.214,0.194,0.315,0.295,0.277,0.158,0.094,west-northwest,4.8,No
2019/02/14,18:00,0.215,0.194,0.317,0.294,0.276,0.157,0.095,west-northwest,5.1,No
2019/02/14,18:10,0.215,0.194,0.316,0.293,0.276,0.158,0.095,west-northwest,6.1,No
2019/02/14,18:20,0.214,0.193,0.317,0.294,0.275,0.157,0.094,west-northwest,7.0,No
2019/02/14,18:30,0.215,0.193,0.315,0.294,0.276,0.158,0.094,west-northwest,6.3,No
2019/02/14,18:40,0.215,0.194,0.316,0.294,0.277,0.157,0.096,west-northwest,4.2,No
2019/02/14,18:50,0.215,0.194,0.316,0.295,0.278,0.157,0.095,west-northwest,6.7,No
2019/02/14,19:00,0.215,0.194,0.317,0.293,0.277,0.157,0.095,west-northwest,6.8,No
2019/02/14,19:10,0.215,0.195,0.315,0.293,0.276,0.157,0.094,west-northwest,5.9,No
2019/02/14,19:20,0.214,0.194,0.316,0.294,0.275,0.158,0.094,northwest,5.5,No
2019/02/14,19:30,0.214,0.194,0.316,0.295,0.275,0.157,0.095,west-northwest,4.7,No
2019/02/14,19:40,0.214,0.195,0.316,0.296,0.276,0.158,0.095,west-northwest,3.6,No
2019/02/14,19:50,0.214,0.194,0.315,0.294,0.277,0.158,0.094,west-northwest,1.6,No
2019/02/14,20:00,0.214,0.193,0.317,0.295,0.276,0.157,0.095,west-northwest,2.6,No
2019/02/14,20:10,0.213,0.195,0.316,0.295,0.275,0.157,0.095,west-northwest,3.9,No
2019/02/14,20:20,0.215,0.195,0.317,0.294,0.276,0.157,0.095,west,3.8,No
2019/02/14,20:30,0.214,0.193,0.315,0.293,0.276,0.158,0.094,west,3.8,No
2019/02/14,20:40,0.215,0.195,0.317,0.295,0.276,0.158,0.094,west,4.0,No
2019/02/14,20:50,0.215,0.194,0.315,0.294,0.277,0.158,0.096,west,4.8,No
2019/02/14,21:00,0.215,0.193,0.317,0.295,0.275,0.157,0.096,west,3.7,No
2019/02/14,21:10,0.216,0.194,0.316,0.294,0.275,0.157,0.094,west-northwest,3.3,No
2019/02/14,21:20,0.215,0.195,0.317,0.294,0.276,0.158,0.095,west-northwest,3.3,No
2019/02/14,21:30,0.214,0.194,0.316,0.294,0.277,0.158,0.095,west-northwest,3.8,No
2019/02/14,21:40,0.215,0.194,0.315,0.295,0.276,0.157,0.094,west-northwest,4.5,No
2019/02/14,21:50,0.213,0.195,0.315,0.295,0.276,0.157,0.094,west-northwest,5.1,No
2019/02/14,22:00,0.215,0.193,0.316,0.295,0.276,0.158,0.095,west-northwest,5.7,No
2019/02/14,22:10,0.215,0.194,0.316,0.296,0.277,0.156,0.096,west-northwest,5.3,No
2019/02/14,22:20,0.215,0.193,0.318,0.294,0.276,0.157,0.095,west-northwest,6.8,No
2019/02/14,22:30,0.215,0.194,0.318,0.295,0.276,0.157,0.095,west-northwest,7.4,No
2019/02/14,22:40,0.215,0.194,0.317,0.294,0.276,0.157,0.095,west-northwest,8.1,No
2019/02/14,22:50,0.214,0.194,0.316,0.294,0.276,0.157,0.095,west-northwest,7.9,No
2019/02/14,23:00,0.214,0.194,0.315,0.294,0.274,0.156,0.095,west-northwest,7.3,No
2019/02/14,23:10,0.214,0.194,0.316,0.294,0.277,0.156,0.095,west-northwest,6.5,No
2019/02/14,23:20,0.214,0.194,0.316,0.295,0.274,0.156,0.094,west-northwest,4.6,No
2019/02/14,23:30,0.214,0.194,0.317,0.293,0.276,0.157,0.095,west-northwest,4.0,No
2019/02/14,23:40,0.215,0.194,0.316,0.294,0.276,0.157,0.094,west-northwest,3.7,No
2019/02/14,23:50,0.214,0.194,0.316,0.294,0.276,0.157,0.095,west-northwest,3.3,No
